Time,TemperatureF,DewpointF,PressureIn,WindDirection,WindDirectionDegrees,WindSpeedMPH,WindSpeedGustMPH,Humidity,HourlyPrecipIn,Conditions,Clouds,dailyrainin,SoftwareType,DateUTC
2013-08-30 00:01:00,67.7,65.3,29.96,SSW,213,0.0,0.0,92,0.00,,---,0.00,VWS V14.01,2013-08-30 04:01:00,
2013-08-30 00:02:00,67.7,65.3,29.97,SSW,213,0.0,0.0,92,0.00,,---,0.00,VWS V14.01,2013-08-30 04:02:00,
2013-08-30 00:03:00,67.7,65.3,29.96,SSW,213,0.0,0.0,92,0.00,,---,0.00,VWS V14.01,2013-08-30 04:03:00,
2013-08-30 00:08:00,67.5,65.1,29.97,SSW,213,0.0,0.0,92,0.00,,---,0.00,VWS V14.01,2013-08-30 04:08:00,
2013-08-30 00:14:00,67.4,65.3,29.97,SSW,213,0.0,0.0,93,0.00,,---,0.00,VWS V14.01,2013-08-30 04:14:00,
2013-08-30 00:19:00,67.2,65.1,29.97,SSW,213,0.0,0.0,93,0.00,,---,0.00,VWS V14.01,2013-08-30 04:19:00,
2013-08-30 00:24:00,67.0,64.6,29.97,SSW,213,0.0,0.0,92,0.00,,---,0.00,VWS V14.01,2013-08-30 04:24:00,
2013-08-30 00:29:00,66.8,64.7,29.97,SSW,213,0.0,0.0,93,0.00,,---,0.00,VWS V14.01,2013-08-30 04:29:00,
2013-08-30 00:34:00,66.7,64.6,29.97,SSW,213,0.0,0.0,93,0.00,,---,0.00,VWS V14.01,2013-08-30 04:34:00,
2013-08-30 00:39:00,66.5,64.4,29.96,SSW,213,0.0,0.0,93,0.00,,---,0.00,VWS V14.01,2013-08-30 04:39:00,
2013-08-30 00:44:00,66.3,64.2,29.96,SSW,213,0.0,0.0,93,0.00,,---,0.00,VWS V14.01,2013-08-30 04:44:00,
2013-08-30 00:49:00,66.2,64.1,29.96,SSW,213,0.0,0.0,93,0.00,,---,0.00,VWS V14.01,2013-08-30 04:49:00,
2013-08-30 00:54:00,66.2,64.4,29.96,SSW,213,0.0,0.0,94,0.00,,---,0.00,VWS V14.01,2013-08-30 04:54:00,
2013-08-30 00:59:00,66.2,64.4,29.96,SSW,213,0.0,0.0,94,0.00,,---,0.00,VWS V14.01,2013-08-30 04:59:00,
2013-08-30 01:04:00,66.2,64.4,29.96,SSW,213,0.0,0.0,94,0.00,,---,0.00,VWS V14.01,2013-08-30 05:04:00,
2013-08-30 01:09:00,66.1,64.3,29.96,SSW,213,0.0,0.0,94,0.00,,---,0.00,VWS V14.01,2013-08-30 05:09:00,
2013-08-30 01:14:00,65.9,64.1,29.96,SSW,213,0.0,0.0,94,0.00,,---,0.00,VWS V14.01,2013-08-30 05:14:00,
2013-08-30 01:19:00,65.9,64.1,29.95,SSW,213,0.0,0.0,94,0.00,,---,0.00,VWS V14.01,2013-08-30 05:19:00,
2013-08-30 01:24:00,65.7,63.9,29.95,SSW,213,0.0,0.0,94,0.00,,---,0.00,VWS V14.01,2013-08-30 05:24:00,
2013-08-30 01:29:00,65.6,63.8,29.95,SSW,213,0.0,0.0,94,0.00,,---,0.00,VWS V14.01,2013-08-30 05:29:00,
2013-08-30 01:34:00,65.4,63.9,29.95,SSW,213,0.0,0.0,95,0.00,,---,0.00,VWS V14.01,2013-08-30 05:34:00,
2013-08-30 01:39:00,65.4,63.9,29.96,SSW,213,0.0,0.0,95,0.00,,---,0.00,VWS V14.01,2013-08-30 05:39:00,
2013-08-30 01:44:00,65.4,63.9,29.96,SSW,213,0.0,0.0,95,0.00,,---,0.00,VWS V14.01,2013-08-30 05:44:00,
2013-08-30 01:49:00,65.4,63.9,29.95,SSW,213,0.0,0.0,95,0.00,,---,0.00,VWS V14.01,2013-08-30 05:49:00,
2013-08-30 01:54:00,65.3,63.8,29.95,SSW,213,0.0,0.0,95,0.00,,---,0.00,VWS V14.01,2013-08-30 05:54:00,
2013-08-30 01:59:00,65.3,63.8,29.95,SSW,213,0.0,0.0,95,0.00,,---,0.00,VWS V14.01,2013-08-30 05:59:00,
2013-08-30 02:04:00,65.1,63.6,29.95,SSW,213,0.0,0.0,95,0.00,,---,0.00,VWS V14.01,2013-08-30 06:04:00,
2013-08-30 02:09:00,65.0,63.5,29.95,SSW,213,0.0,0.0,95,0.00,,---,0.00,VWS V14.01,2013-08-30 06:09:00,
2013-08-30 02:14:00,65.0,63.5,29.95,SSW,213,0.0,0.0,95,0.00,,---,0.00,VWS V14.01,2013-08-30 06:14:00,
2013-08-30 02:19:00,65.0,63.5,29.95,SSW,213,0.0,0.0,95,0.00,,---,0.00,VWS V14.01,2013-08-30 06:19:00,
2013-08-30 02:24:00,64.9,63.4,29.95,SSW,213,0.0,0.0,95,0.00,,---,0.00,VWS V14.01,2013-08-30 06:24:00,
2013-08-30 02:29:00,64.8,63.3,29.95,SSW,213,0.0,0.0,95,0.00,,---,0.00,VWS V14.01,2013-08-30 06:29:00,
2013-08-30 02:34:00,64.7,63.2,29.95,SSW,213,0.0,0.0,95,0.00,,---,0.00,VWS V14.01,2013-08-30 06:34:00,
2013-08-30 02:39:00,64.4,62.9,29.95,SSW,213,0.0,0.0,95,0.00,,---,0.00,VWS V14.01,2013-08-30 06:39:00,
2013-08-30 02:44:00,64.3,62.8,29.95,SSW,213,0.0,0.0,95,0.00,,---,0.00,VWS V14.01,2013-08-30 06:44:00,
2013-08-30 02:49:00,64.3,63.1,29.94,SSW,213,0.0,0.0,96,0.00,,---,0.00,VWS V14.01,2013-08-30 06:49:00,
2013-08-30 02:54:00,64.4,63.2,29.94,SSW,213,0.0,0.0,96,0.00,,---,0.00,VWS V14.01,2013-08-30 06:54:00,
2013-08-30 02:59:00,64.4,63.2,29.95,SSW,213,0.0,0.0,96,0.00,,---,0.00,VWS V14.01,2013-08-30 06:59:00,
2013-08-30 03:04:00,64.4,63.2,29.95,SSW,213,0.0,0.0,96,0.00,,---,0.00,VWS V14.01,2013-08-30 07:04:00,
2013-08-30 03:09:00,64.4,63.2,29.95,SSW,213,0.0,0.0,96,0.00,,---,0.00,VWS V14.01,2013-08-30 07:09:00,
2013-08-30 03:14:00,64.3,63.1,29.95,SSW,213,0.0,0.0,96,0.00,,---,0.00,VWS V14.01,2013-08-30 07:14:00,
2013-08-30 03:19:00,64.2,63.0,29.95,SSW,213,0.0,0.0,96,0.00,,---,0.00,VWS V14.01,2013-08-30 07:19:00,
2013-08-30 03:24:00,64.1,62.9,29.95,SSW,213,0.0,0.0,96,0.00,,---,0.00,VWS V14.01,2013-08-30 07:24:00,
2013-08-30 03:29:00,63.9,62.7,29.95,SSW,213,0.0,0.0,96,0.00,,---,0.00,VWS V14.01,2013-08-30 07:29:00,
2013-08-30 03:34:00,63.8,62.6,29.96,SSW,213,0.0,0.0,96,0.00,,---,0.00,VWS V14.01,2013-08-30 07:34:00,
2013-08-30 03:39:00,63.8,62.6,29.95,SSW,213,0.0,0.0,96,0.00,,---,0.00,VWS V14.01,2013-08-30 07:39:00,
2013-08-30 03:44:00,63.8,62.6,29.95,SSW,213,0.0,0.0,96,0.00,,---,0.00,VWS V14.01,2013-08-30 07:44:00,
2013-08-30 03:49:00,63.9,62.7,29.95,SSW,213,0.0,0.0,96,0.00,,---,0.00,VWS V14.01,2013-08-30 07:49:00,
2013-08-30 03:54:00,63.9,62.7,29.94,SSW,213,0.0,0.0,96,0.00,,---,0.00,VWS V14.01,2013-08-30 07:54:00,
2013-08-30 03:59:00,63.9,63.0,29.94,SSW,213,0.0,0.0,97,0.00,,---,0.00,VWS V14.01,2013-08-30 07:59:00,
2013-08-30 04:04:00,63.9,63.0,29.94,SSW,213,0.0,0.0,97,0.00,,---,0.00,VWS V14.01,2013-08-30 08:04:00,
2013-08-30 04:09:00,63.9,63.0,29.94,SSW,213,0.0,0.0,97,0.00,,---,0.00,VWS V14.01,2013-08-30 08:09:00,
2013-08-30 04:14:00,64.0,63.1,29.94,SSW,213,0.0,0.0,97,0.00,,---,0.00,VWS V14.01,2013-08-30 08:14:00,
2013-08-30 04:19:00,64.2,63.3,29.94,SSW,213,0.0,0.0,97,0.00,,---,0.00,VWS V14.01,2013-08-30 08:19:00,
2013-08-30 04:24:00,64.3,63.4,29.93,SSW,213,0.0,0.0,97,0.00,,---,0.00,VWS V14.01,2013-08-30 08:24:00,
2013-08-30 04:29:00,64.3,63.4,29.93,SSW,213,0.0,0.0,97,0.00,,---,0.00,VWS V14.01,2013-08-30 08:29:00,
2013-08-30 04:34:00,64.4,63.5,29.93,SSW,213,0.0,0.0,97,0.00,,---,0.00,VWS V14.01,2013-08-30 08:34:00,
2013-08-30 04:39:00,64.4,63.5,29.93,SSW,213,0.0,0.0,97,0.00,,---,0.00,VWS V14.01,2013-08-30 08:39:00,
2013-08-30 04:44:00,64.5,63.6,29.93,SSW,213,0.0,0.0,97,0.00,,---,0.00,VWS V14.01,2013-08-30 08:44:00,
2013-08-30 04:49:00,64.6,63.7,29.93,SSW,213,0.0,0.0,97,0.00,,---,0.00,VWS V14.01,2013-08-30 08:49:00,
2013-08-30 04:54:00,64.6,63.7,29.92,SSW,213,0.0,0.0,97,0.00,,---,0.00,VWS V14.01,2013-08-30 08:54:00,
2013-08-30 04:59:00,64.5,63.6,29.92,SSW,213,0.0,0.0,97,0.00,,---,0.00,VWS V14.01,2013-08-30 08:59:00,
2013-08-30 05:04:00,64.4,63.5,29.92,SSW,213,0.0,0.0,97,0.00,,---,0.00,VWS V14.01,2013-08-30 09:04:00,
2013-08-30 05:09:00,64.4,63.5,29.91,SSW,213,0.0,2.0,97,0.00,,---,0.00,VWS V14.01,2013-08-30 09:09:00,
2013-08-30 05:14:00,64.5,63.6,29.91,SSW,213,0.0,0.0,97,0.00,,---,0.00,VWS V14.01,2013-08-30 09:14:00,
2013-08-30 05:19:00,64.8,64.2,29.91,SSW,213,1.0,3.0,98,0.00,,---,0.00,VWS V14.01,2013-08-30 09:19:00,
2013-08-30 05:24:00,65.2,64.6,29.91,SSW,213,0.0,0.0,98,0.00,,---,0.00,VWS V14.01,2013-08-30 09:24:00,
2013-08-30 05:29:00,65.6,65.0,29.92,SSW,213,0.0,0.0,98,0.00,,---,0.00,VWS V14.01,2013-08-30 09:29:00,
2013-08-30 05:34:00,65.8,65.2,29.92,SSW,213,0.0,0.0,98,0.00,,---,0.00,VWS V14.01,2013-08-30 09:34:00,
2013-08-30 05:39:00,65.9,65.3,29.91,SSW,213,0.0,0.0,98,0.00,,---,0.00,VWS V14.01,2013-08-30 09:39:00,
2013-08-30 05:44:00,65.9,65.3,29.91,SSW,213,0.0,0.0,98,0.00,,---,0.00,VWS V14.01,2013-08-30 09:44:00,
2013-08-30 05:49:00,65.9,65.3,29.91,SSW,213,1.0,1.0,98,0.00,,---,0.00,VWS V14.01,2013-08-30 09:49:00,
2013-08-30 05:54:00,66.0,65.4,29.91,SSW,213,0.0,1.0,98,0.00,,---,0.00,VWS V14.01,2013-08-30 09:54:00,
2013-08-30 05:59:00,66.1,65.5,29.91,SSW,213,0.0,0.0,98,0.00,,---,0.00,VWS V14.01,2013-08-30 09:59:00,
2013-08-30 06:04:00,66.3,65.7,29.91,SSW,213,0.0,0.0,98,0.00,,---,0.00,VWS V14.01,2013-08-30 10:04:00,
2013-08-30 06:09:00,66.4,65.8,29.90,SSW,213,0.0,2.0,98,0.00,,---,0.00,VWS V14.01,2013-08-30 10:09:00,
2013-08-30 06:14:00,66.4,65.8,29.90,SSW,213,0.0,0.0,98,0.00,,---,0.00,VWS V14.01,2013-08-30 10:14:00,
2013-08-30 06:19:00,66.5,65.9,29.91,SSW,213,1.0,4.0,98,0.00,,---,0.00,VWS V14.01,2013-08-30 10:19:00,
2013-08-30 06:24:00,66.7,66.1,29.90,SSW,213,0.0,1.0,98,0.00,,---,0.00,VWS V14.01,2013-08-30 10:24:00,
2013-08-30 06:29:00,66.7,66.1,29.90,SSW,213,2.0,3.0,98,0.00,,---,0.00,VWS V14.01,2013-08-30 10:29:00,
2013-08-30 06:34:00,66.9,66.3,29.90,SSW,213,1.0,3.0,98,0.00,,---,0.00,VWS V14.01,2013-08-30 10:34:00,
2013-08-30 06:39:00,66.9,66.3,29.90,SSW,213,2.0,3.0,98,0.00,,---,0.00,VWS V14.01,2013-08-30 10:39:00,
2013-08-30 06:44:00,67.0,66.4,29.91,SSW,213,0.0,1.0,98,0.00,,---,0.00,VWS V14.01,2013-08-30 10:44:00,
2013-08-30 06:49:00,67.0,66.4,29.91,SSW,213,0.0,0.0,98,0.00,,---,0.00,VWS V14.01,2013-08-30 10:49:00,
2013-08-30 06:54:00,67.0,66.4,29.91,SSW,213,0.0,0.0,98,0.00,,---,0.00,VWS V14.01,2013-08-30 10:54:00,
2013-08-30 06:59:00,66.9,66.3,29.91,SSW,213,2.0,2.0,98,0.00,,---,0.00,VWS V14.01,2013-08-30 10:59:00,
2013-08-30 07:04:00,67.0,66.4,29.91,SSW,213,3.0,3.0,98,0.00,,---,0.00,VWS V14.01,2013-08-30 11:04:00,
2013-08-30 07:09:00,67.0,66.4,29.91,SSW,213,2.0,3.0,98,0.00,,---,0.00,VWS V14.01,2013-08-30 11:09:00,
2013-08-30 07:14:00,67.0,66.4,29.91,SSW,213,1.0,2.0,98,0.00,,---,0.00,VWS V14.01,2013-08-30 11:14:00,
2013-08-30 07:19:00,67.0,66.4,29.91,SSW,213,2.0,2.0,98,0.00,,---,0.00,VWS V14.01,2013-08-30 11:19:00,
2013-08-30 07:24:00,67.0,66.4,29.91,SSW,213,0.0,2.0,98,0.00,,---,0.00,VWS V14.01,2013-08-30 11:24:00,
2013-08-30 07:29:00,67.2,66.6,29.91,SSW,213,0.0,0.0,98,0.00,,---,0.00,VWS V14.01,2013-08-30 11:29:00,
2013-08-30 07:34:00,67.2,66.6,29.91,SSW,213,0.0,0.0,98,0.00,,---,0.00,VWS V14.01,2013-08-30 11:34:00,
2013-08-30 07:39:00,67.3,66.7,29.91,SSW,213,0.0,1.0,98,0.00,,---,0.00,VWS V14.01,2013-08-30 11:39:00,
2013-08-30 07:44:00,67.4,66.8,29.91,SSW,213,1.0,1.0,98,0.00,,---,0.00,VWS V14.01,2013-08-30 11:44:00,
2013-08-30 07:49:00,67.6,67.0,29.91,SSW,213,0.0,0.0,98,0.00,,---,0.00,VWS V14.01,2013-08-30 11:49:00,
2013-08-30 07:54:00,67.8,67.2,29.91,SSW,213,0.0,0.0,98,0.00,,---,0.00,VWS V14.01,2013-08-30 11:54:00,
2013-08-30 07:59:00,68.0,67.4,29.91,SSW,213,0.0,2.0,98,0.00,,---,0.00,VWS V14.01,2013-08-30 11:59:00,
2013-08-30 08:04:00,68.2,67.6,29.91,SSW,213,0.0,3.0,98,0.00,,---,0.00,VWS V14.01,2013-08-30 12:04:00,
2013-08-30 08:09:00,68.5,67.9,29.92,SSW,213,1.0,2.0,98,0.00,,---,0.00,VWS V14.01,2013-08-30 12:09:00,
2013-08-30 08:14:00,68.7,68.1,29.91,SSW,209,2.0,4.0,98,0.00,,---,0.00,VWS V14.01,2013-08-30 12:14:00,
2013-08-30 08:19:00,69.0,68.4,29.91,SSW,209,1.0,3.0,98,0.00,,---,0.00,VWS V14.01,2013-08-30 12:19:00,
2013-08-30 08:24:00,69.3,68.7,29.91,South,189,2.0,5.0,98,0.00,,---,0.00,VWS V14.01,2013-08-30 12:24:00,
2013-08-30 08:29:00,69.6,69.0,29.91,South,191,2.0,3.0,98,0.00,,---,0.00,VWS V14.01,2013-08-30 12:29:00,
2013-08-30 08:34:00,69.9,69.3,29.90,South,188,1.0,3.0,98,0.00,,---,0.00,VWS V14.01,2013-08-30 12:34:00,
2013-08-30 08:39:00,70.3,69.7,29.90,SSW,196,0.0,4.0,98,0.00,,---,0.00,VWS V14.01,2013-08-30 12:39:00,
2013-08-30 08:44:00,70.7,70.1,29.90,SSW,198,1.0,4.0,98,0.00,,---,0.00,VWS V14.01,2013-08-30 12:44:00,
2013-08-30 08:49:00,71.0,70.1,29.90,South,189,1.0,5.0,97,0.00,,---,0.00,VWS V14.01,2013-08-30 12:49:00,
2013-08-30 08:54:00,71.5,70.6,29.90,SSW,207,3.0,4.0,97,0.00,,---,0.00,VWS V14.01,2013-08-30 12:54:00,
2013-08-30 08:59:00,71.9,70.7,29.90,SW,227,4.0,5.0,96,0.00,,---,0.00,VWS V14.01,2013-08-30 12:59:00,
2013-08-30 09:04:00,72.4,70.6,29.90,SSW,197,4.0,4.0,94,0.00,,---,0.00,VWS V14.01,2013-08-30 13:04:00,
2013-08-30 09:09:00,72.9,70.8,29.90,SW,214,2.0,4.0,93,0.00,,---,0.00,VWS V14.01,2013-08-30 13:09:00,
2013-08-30 09:14:00,73.4,70.9,29.89,SSW,208,2.0,5.0,92,0.00,,---,0.00,VWS V14.01,2013-08-30 13:14:00,
2013-08-30 09:19:00,73.9,70.8,29.89,SSW,202,4.0,5.0,90,0.00,,---,0.00,VWS V14.01,2013-08-30 13:19:00,
2013-08-30 09:24:00,74.4,71.3,29.89,SSW,211,0.0,3.0,90,0.00,,---,0.00,VWS V14.01,2013-08-30 13:24:00,
2013-08-30 09:29:00,74.8,71.3,29.88,SW,216,4.0,4.0,89,0.00,,---,0.00,VWS V14.01,2013-08-30 13:29:00,
2013-08-30 09:34:00,75.3,71.2,29.88,SSW,196,3.0,6.0,87,0.00,,---,0.00,VWS V14.01,2013-08-30 13:34:00,
2013-08-30 09:39:00,75.7,71.2,29.88,SW,223,4.0,5.0,86,0.00,,---,0.00,VWS V14.01,2013-08-30 13:39:00,
2013-08-30 09:44:00,76.1,71.6,29.88,SW,223,5.0,9.0,86,0.00,,---,0.00,VWS V14.01,2013-08-30 13:44:00,
2013-08-30 09:49:00,76.5,71.7,29.89,SW,221,3.0,6.0,85,0.00,,---,0.00,VWS V14.01,2013-08-30 13:49:00,
2013-08-30 09:54:00,76.9,71.7,29.88,SW,230,2.0,8.0,84,0.00,,---,0.00,VWS V14.01,2013-08-30 13:54:00,
2013-08-30 09:59:00,77.3,72.1,29.88,SW,221,4.0,6.0,84,0.00,,---,0.00,VWS V14.01,2013-08-30 13:59:00,
2013-08-30 10:04:00,77.9,72.7,29.88,SSW,207,2.0,5.0,84,0.00,,---,0.00,VWS V14.01,2013-08-30 14:04:00,
2013-08-30 10:09:00,78.3,72.4,29.88,SW,225,5.0,5.0,82,0.00,,---,0.00,VWS V14.01,2013-08-30 14:09:00,
2013-08-30 10:14:00,78.7,72.4,29.88,SW,231,3.0,6.0,81,0.00,,---,0.00,VWS V14.01,2013-08-30 14:14:00,
2013-08-30 10:19:00,79.0,72.7,29.88,SSW,207,2.0,8.0,81,0.00,,---,0.00,VWS V14.01,2013-08-30 14:19:00,
2013-08-30 10:24:00,79.5,73.2,29.88,South,185,6.0,6.0,81,0.00,,---,0.00,VWS V14.01,2013-08-30 14:24:00,
2013-08-30 10:29:00,79.9,72.8,29.87,SSW,207,5.0,10.0,79,0.00,,---,0.00,VWS V14.01,2013-08-30 14:29:00,
2013-08-30 10:34:00,80.2,72.7,29.87,SW,214,7.0,9.0,78,0.00,,---,0.00,VWS V14.01,2013-08-30 14:34:00,
2013-08-30 10:39:00,80.5,72.6,29.87,SSW,196,3.0,9.0,77,0.00,,---,0.00,VWS V14.01,2013-08-30 14:39:00,
2013-08-30 10:44:00,80.8,72.5,29.87,SSW,213,7.0,9.0,76,0.00,,---,0.00,VWS V14.01,2013-08-30 14:44:00,
2013-08-30 10:49:00,81.1,72.8,29.87,South,190,9.0,9.0,76,0.00,,---,0.00,VWS V14.01,2013-08-30 14:49:00,
2013-08-30 10:54:00,81.1,72.0,29.87,WSW,242,4.0,11.0,74,0.00,,---,0.00,VWS V14.01,2013-08-30 14:54:00,
2013-08-30 10:59:00,81.0,72.7,29.87,SW,236,7.0,7.0,76,0.00,,---,0.00,VWS V14.01,2013-08-30 14:59:00,
2013-08-30 11:04:00,81.3,72.2,29.86,WSW,244,9.0,9.0,74,0.00,,---,0.00,VWS V14.01,2013-08-30 15:04:00,
2013-08-30 11:09:00,81.7,72.6,29.86,SW,219,3.0,9.0,74,0.00,,---,0.00,VWS V14.01,2013-08-30 15:09:00,
2013-08-30 11:14:00,82.0,72.9,29.86,SW,215,8.0,10.0,74,0.00,,---,0.00,VWS V14.01,2013-08-30 15:14:00,
2013-08-30 11:19:00,82.4,73.7,29.86,SW,228,5.0,7.0,75,0.00,,---,0.00,VWS V14.01,2013-08-30 15:19:00,
2013-08-30 11:24:00,82.9,73.4,29.86,SW,219,9.0,9.0,73,0.00,,---,0.00,VWS V14.01,2013-08-30 15:24:00,
2013-08-30 11:29:00,83.3,73.8,29.86,SSW,194,6.0,11.0,73,0.00,,---,0.00,VWS V14.01,2013-08-30 15:29:00,
2013-08-30 11:34:00,83.6,73.2,29.86,SW,224,7.0,9.0,71,0.00,,---,0.00,VWS V14.01,2013-08-30 15:34:00,
2013-08-30 11:39:00,83.7,72.9,29.87,West,260,6.0,8.0,70,0.00,,---,0.00,VWS V14.01,2013-08-30 15:39:00,
2013-08-30 11:44:00,83.7,73.3,29.86,WSW,238,9.0,11.0,71,0.00,,---,0.00,VWS V14.01,2013-08-30 15:44:00,
2013-08-30 11:49:00,83.8,73.8,29.86,SSW,200,10.0,10.0,72,0.00,,---,0.00,VWS V14.01,2013-08-30 15:49:00,
2013-08-30 11:54:00,84.1,73.7,29.86,SW,236,4.0,8.0,71,0.00,,---,0.00,VWS V14.01,2013-08-30 15:54:00,
2013-08-30 11:59:00,84.3,74.7,29.85,WSW,238,5.0,6.0,73,0.00,,---,0.00,VWS V14.01,2013-08-30 15:59:00,
2013-08-30 12:04:00,84.7,73.8,29.85,SSW,211,5.0,7.0,70,0.00,,---,0.00,VWS V14.01,2013-08-30 16:04:00,
2013-08-30 12:09:00,84.9,73.6,29.86,SW,232,10.0,14.0,69,0.00,,---,0.00,VWS V14.01,2013-08-30 16:09:00,
2013-08-30 12:14:00,84.9,73.6,29.85,SSW,205,8.0,9.0,69,0.00,,---,0.00,VWS V14.01,2013-08-30 16:14:00,
2013-08-30 12:19:00,85.0,73.7,29.85,SW,219,8.0,10.0,69,0.00,,---,0.00,VWS V14.01,2013-08-30 16:19:00,
2013-08-30 12:24:00,85.0,73.7,29.85,SW,236,9.0,11.0,69,0.00,,---,0.00,VWS V14.01,2013-08-30 16:24:00,
2013-08-30 12:29:00,85.0,73.3,29.85,WSW,245,8.0,8.0,68,0.00,,---,0.00,VWS V14.01,2013-08-30 16:29:00,
2013-08-30 12:34:00,84.9,73.2,29.85,WSW,250,8.0,10.0,68,0.00,,---,0.00,VWS V14.01,2013-08-30 16:34:00,
2013-08-30 12:39:00,84.9,74.0,29.85,WSW,238,7.0,9.0,70,0.00,,---,0.00,VWS V14.01,2013-08-30 16:39:00,
2013-08-30 12:44:00,85.1,74.2,29.85,WSW,240,3.0,7.0,70,0.00,,---,0.00,VWS V14.01,2013-08-30 16:44:00,
2013-08-30 12:49:00,85.3,74.0,29.84,SW,221,3.0,8.0,69,0.00,,---,0.00,VWS V14.01,2013-08-30 16:49:00,
2013-08-30 12:54:00,85.6,73.8,29.84,SW,217,8.0,8.0,68,0.00,,---,0.00,VWS V14.01,2013-08-30 16:54:00,
2013-08-30 12:59:00,85.9,74.6,29.84,WSW,244,9.0,9.0,69,0.00,,---,0.00,VWS V14.01,2013-08-30 16:59:00,
2013-08-30 13:04:00,86.2,74.0,29.84,WSW,244,3.0,9.0,67,0.00,,---,0.00,VWS V14.01,2013-08-30 17:04:00,
2013-08-30 13:09:00,86.5,74.7,29.83,South,191,4.0,7.0,68,0.00,,---,0.00,VWS V14.01,2013-08-30 17:09:00,
2013-08-30 13:14:00,86.9,74.6,29.83,South,186,2.0,5.0,67,0.00,,---,0.00,VWS V14.01,2013-08-30 17:14:00,
2013-08-30 13:19:00,87.2,74.0,29.83,SSW,200,5.0,9.0,65,0.00,,---,0.00,VWS V14.01,2013-08-30 17:19:00,
2013-08-30 13:24:00,87.4,73.3,29.83,SSW,203,9.0,9.0,63,0.00,,---,0.00,VWS V14.01,2013-08-30 17:24:00,
2013-08-30 13:29:00,87.4,73.7,29.83,SSW,205,4.0,7.0,64,0.00,,---,0.00,VWS V14.01,2013-08-30 17:29:00,
2013-08-30 13:34:00,87.5,75.2,29.82,SSW,194,5.0,7.0,67,0.00,,---,0.00,VWS V14.01,2013-08-30 17:34:00,
2013-08-30 13:39:00,87.7,74.0,29.82,SW,225,7.0,8.0,64,0.00,,---,0.00,VWS V14.01,2013-08-30 17:39:00,
2013-08-30 13:44:00,87.6,73.0,29.82,SW,236,6.0,8.0,62,0.00,,---,0.00,VWS V14.01,2013-08-30 17:44:00,
2013-08-30 13:49:00,87.2,73.1,29.82,SSW,200,7.0,7.0,63,0.00,,---,0.00,VWS V14.01,2013-08-30 17:49:00,
2013-08-30 13:54:00,86.9,73.3,29.82,SW,219,6.0,9.0,64,0.00,,---,0.00,VWS V14.01,2013-08-30 17:54:00,
2013-08-30 13:58:00,86.7,73.1,29.81,WSW,239,6.0,10.0,64,0.00,,---,0.00,VWS V14.01,2013-08-30 17:58:00,
2013-08-30 14:03:00,86.4,73.7,29.81,South,191,3.0,8.0,66,0.00,,---,0.00,VWS V14.01,2013-08-30 18:03:00,
2013-08-30 14:08:00,86.6,73.9,29.81,South,179,4.0,9.0,66,0.00,,---,0.00,VWS V14.01,2013-08-30 18:08:00,
2013-08-30 14:13:00,87.2,74.5,29.81,SW,215,11.0,11.0,66,0.00,,---,0.00,VWS V14.01,2013-08-30 18:13:00,
2013-08-30 14:18:00,87.4,73.7,29.81,SSW,199,8.0,10.0,64,0.00,,---,0.00,VWS V14.01,2013-08-30 18:18:00,
2013-08-30 14:23:00,87.7,74.0,29.81,SW,221,4.0,9.0,64,0.00,,---,0.00,VWS V14.01,2013-08-30 18:23:00,
2013-08-30 14:28:00,88.0,74.8,29.81,SSW,202,4.0,6.0,65,0.00,,---,0.00,VWS V14.01,2013-08-30 18:28:00,
2013-08-30 14:33:00,88.3,74.1,29.80,SW,232,5.0,8.0,63,0.00,,---,0.00,VWS V14.01,2013-08-30 18:33:00,
2013-08-30 14:38:00,88.5,74.3,29.80,SSW,198,4.0,6.0,63,0.00,,---,0.00,VWS V14.01,2013-08-30 18:38:00,
2013-08-30 14:43:00,88.7,74.0,29.80,SSW,209,10.0,11.0,62,0.00,,---,0.00,VWS V14.01,2013-08-30 18:43:00,
2013-08-30 14:48:00,88.6,73.4,29.80,SSW,194,5.0,9.0,61,0.00,,---,0.00,VWS V14.01,2013-08-30 18:48:00,
2013-08-30 14:53:00,88.6,73.4,29.80,South,181,4.0,7.0,61,0.00,,---,0.00,VWS V14.01,2013-08-30 18:53:00,
2013-08-30 14:58:00,88.8,74.1,29.80,SSW,210,5.0,8.0,62,0.00,,---,0.00,VWS V14.01,2013-08-30 18:58:00,
2013-08-30 15:03:00,89.0,74.8,29.79,WSW,243,6.0,12.0,63,0.00,,---,0.00,VWS V14.01,2013-08-30 19:03:00,
2013-08-30 15:08:00,89.1,74.4,29.79,WSW,242,4.0,10.0,62,0.00,,---,0.00,VWS V14.01,2013-08-30 19:08:00,
2013-08-30 15:13:00,89.2,75.4,29.79,WSW,238,9.0,9.0,64,0.00,,---,0.00,VWS V14.01,2013-08-30 19:13:00,
2013-08-30 15:18:00,89.3,75.1,29.78,SSW,211,6.0,7.0,63,0.00,,---,0.00,VWS V14.01,2013-08-30 19:18:00,
2013-08-30 15:23:00,89.3,74.1,29.78,SW,217,6.0,9.0,61,0.00,,---,0.00,VWS V14.01,2013-08-30 19:23:00,
2013-08-30 15:28:00,89.4,75.2,29.78,SSW,198,5.0,9.0,63,0.00,,---,0.00,VWS V14.01,2013-08-30 19:28:00,
2013-08-30 15:33:00,89.4,75.6,29.77,SSW,197,7.0,7.0,64,0.00,,---,0.00,VWS V14.01,2013-08-30 19:33:00,
2013-08-30 15:38:00,89.5,74.8,29.77,WSW,239,4.0,11.0,62,0.00,,---,0.00,VWS V14.01,2013-08-30 19:38:00,
2013-08-30 15:43:00,89.6,74.9,29.77,WSW,246,6.0,8.0,62,0.00,,---,0.00,VWS V14.01,2013-08-30 19:43:00,
2013-08-30 15:48:00,89.8,75.1,29.77,SSW,194,8.0,8.0,62,0.00,,---,0.00,VWS V14.01,2013-08-30 19:48:00,
2013-08-30 15:53:00,90.0,75.7,29.77,SSW,206,5.0,9.0,63,0.00,,---,0.00,VWS V14.01,2013-08-30 19:53:00,
2013-08-30 15:58:00,90.1,75.8,29.77,SW,235,5.0,9.0,63,0.00,,---,0.00,VWS V14.01,2013-08-30 19:58:00,
2013-08-30 16:03:00,90.2,75.4,29.76,SSW,202,7.0,7.0,62,0.00,,---,0.00,VWS V14.01,2013-08-30 20:03:00,
2013-08-30 16:08:00,90.4,76.6,29.76,SSW,209,6.0,6.0,64,0.00,,---,0.00,VWS V14.01,2013-08-30 20:08:00,
2013-08-30 16:13:00,90.6,75.8,29.76,SSW,211,4.0,7.0,62,0.00,,---,0.00,VWS V14.01,2013-08-30 20:13:00,
2013-08-30 16:18:00,90.5,75.2,29.76,WSW,242,4.0,7.0,61,0.00,,---,0.00,VWS V14.01,2013-08-30 20:18:00,
2013-08-30 16:23:00,90.4,74.6,29.75,SSW,204,8.0,11.0,60,0.00,,---,0.00,VWS V14.01,2013-08-30 20:23:00,
2013-08-30 16:28:00,90.1,75.3,29.75,SW,219,5.0,5.0,62,0.00,,---,0.00,VWS V14.01,2013-08-30 20:28:00,
2013-08-30 16:33:00,89.9,74.7,29.75,SSW,202,8.0,8.0,61,0.00,,---,0.00,VWS V14.01,2013-08-30 20:33:00,
2013-08-30 16:38:00,89.5,74.8,29.75,SW,215,7.0,7.0,62,0.00,,---,0.00,VWS V14.01,2013-08-30 20:38:00,
2013-08-30 16:43:00,88.9,75.2,29.75,SSW,212,2.0,5.0,64,0.00,,---,0.00,VWS V14.01,2013-08-30 20:43:00,
2013-08-30 16:48:00,88.6,74.4,29.75,SW,229,4.0,7.0,63,0.00,,---,0.00,VWS V14.01,2013-08-30 20:48:00,
2013-08-30 16:53:00,88.3,74.6,29.75,WSW,243,3.0,6.0,64,0.00,,---,0.00,VWS V14.01,2013-08-30 20:53:00,
2013-08-30 16:58:00,88.2,74.5,29.75,WSW,239,9.0,9.0,64,0.00,,---,0.00,VWS V14.01,2013-08-30 20:58:00,
2013-08-30 17:03:00,88.1,74.9,29.75,West,262,6.0,8.0,65,0.00,,---,0.00,VWS V14.01,2013-08-30 21:03:00,
2013-08-30 17:08:00,87.9,74.7,29.74,SW,230,3.0,6.0,65,0.00,,---,0.00,VWS V14.01,2013-08-30 21:08:00,
2013-08-30 17:13:00,87.8,75.0,29.74,SW,229,6.0,7.0,66,0.00,,---,0.00,VWS V14.01,2013-08-30 21:13:00,
2013-08-30 17:18:00,87.6,74.8,29.74,SW,221,4.0,8.0,66,0.00,,---,0.00,VWS V14.01,2013-08-30 21:18:00,
2013-08-30 17:23:00,87.4,75.6,29.74,SW,226,6.0,6.0,68,0.00,,---,0.00,VWS V14.01,2013-08-30 21:23:00,
2013-08-30 17:28:00,87.2,74.9,29.74,SSW,204,3.0,5.0,67,0.00,,---,0.00,VWS V14.01,2013-08-30 21:28:00,
2013-08-30 17:33:00,87.0,75.2,29.73,WSW,244,3.0,6.0,68,0.00,,---,0.00,VWS V14.01,2013-08-30 21:33:00,
2013-08-30 17:38:00,86.8,75.4,29.74,SW,229,7.0,7.0,69,0.00,,---,0.00,VWS V14.01,2013-08-30 21:38:00,
2013-08-30 17:43:00,86.7,75.3,29.74,WSW,248,2.0,5.0,69,0.00,,---,0.00,VWS V14.01,2013-08-30 21:43:00,
2013-08-30 17:48:00,86.5,75.1,29.74,SW,236,3.0,7.0,69,0.00,,---,0.00,VWS V14.01,2013-08-30 21:48:00,
2013-08-30 17:53:00,86.4,75.5,29.73,SSW,203,3.0,6.0,70,0.00,,---,0.00,VWS V14.01,2013-08-30 21:53:00,
2013-08-30 17:58:00,86.2,75.3,29.73,WSW,257,4.0,8.0,70,0.00,,---,0.00,VWS V14.01,2013-08-30 21:58:00,
2013-08-30 18:03:00,86.0,75.5,29.73,WSW,240,1.0,7.0,71,0.00,,---,0.00,VWS V14.01,2013-08-30 22:03:00,
2013-08-30 18:08:00,85.8,75.3,29.72,WSW,237,2.0,5.0,71,0.00,,---,0.00,VWS V14.01,2013-08-30 22:08:00,
2013-08-30 18:13:00,85.6,75.1,29.72,SW,219,5.0,5.0,71,0.00,,---,0.00,VWS V14.01,2013-08-30 22:13:00,
2013-08-30 18:18:00,85.4,75.3,29.72,SW,226,4.0,5.0,72,0.00,,---,0.00,VWS V14.01,2013-08-30 22:18:00,
2013-08-30 18:23:00,85.1,75.1,29.71,SSW,204,5.0,6.0,72,0.00,,---,0.00,VWS V14.01,2013-08-30 22:23:00,
2013-08-30 18:28:00,84.8,74.8,29.71,WSW,244,3.0,4.0,72,0.00,,---,0.00,VWS V14.01,2013-08-30 22:28:00,
2013-08-30 18:33:00,84.6,75.0,29.70,SSW,200,5.0,5.0,73,0.00,,---,0.00,VWS V14.01,2013-08-30 22:33:00,
2013-08-30 18:38:00,84.3,74.7,29.71,SW,236,4.0,4.0,73,0.00,,---,0.00,VWS V14.01,2013-08-30 22:38:00,
2013-08-30 18:43:00,84.1,74.5,29.71,SW,225,0.0,2.0,73,0.00,,---,0.00,VWS V14.01,2013-08-30 22:43:00,
2013-08-30 18:48:00,83.9,74.7,29.71,SW,236,1.0,1.0,74,0.00,,---,0.00,VWS V14.01,2013-08-30 22:48:00,
2013-08-30 18:53:00,83.7,74.5,29.71,WSW,246,2.0,2.0,74,0.00,,---,0.00,VWS V14.01,2013-08-30 22:53:00,
2013-08-30 18:58:00,83.6,74.8,29.71,WSW,246,2.0,2.0,75,0.00,,---,0.00,VWS V14.01,2013-08-30 22:58:00,
2013-08-30 19:03:00,83.4,75.1,29.72,WSW,246,1.0,1.0,76,0.00,,---,0.00,VWS V14.01,2013-08-30 23:03:00,
2013-08-30 19:08:00,83.2,74.8,29.72,WSW,246,1.0,2.0,76,0.00,,---,0.00,VWS V14.01,2013-08-30 23:08:00,
2013-08-30 19:13:00,83.0,74.7,29.72,WSW,246,0.0,0.0,76,0.00,,---,0.00,VWS V14.01,2013-08-30 23:13:00,
2013-08-30 19:18:00,82.9,74.9,29.71,WSW,246,0.0,0.0,77,0.00,,---,0.00,VWS V14.01,2013-08-30 23:18:00,
2013-08-30 19:23:00,82.7,75.2,29.72,WSW,246,0.0,0.0,78,0.00,,---,0.00,VWS V14.01,2013-08-30 23:23:00,
2013-08-30 19:28:00,82.5,75.3,29.72,WSW,246,0.0,0.0,79,0.00,,---,0.00,VWS V14.01,2013-08-30 23:28:00,
2013-08-30 19:33:00,82.1,75.3,29.76,West,264,8.0,10.0,80,0.01,,---,0.01,VWS V14.01,2013-08-30 23:33:00,
2013-08-30 19:38:00,80.2,70.8,29.74,WSW,245,6.0,11.0,73,0.08,,---,0.08,VWS V14.01,2013-08-30 23:38:00,
2013-08-30 19:43:00,78.3,72.7,29.74,SW,220,2.0,6.0,83,0.18,,---,0.18,VWS V14.01,2013-08-30 23:43:00,
2013-08-30 19:48:00,77.1,72.2,29.73,SSW,194,0.0,0.0,85,0.20,,---,0.20,VWS V14.01,2013-08-30 23:48:00,
2013-08-30 19:53:00,76.5,72.3,29.74,SSW,194,0.0,0.0,87,0.20,,---,0.20,VWS V14.01,2013-08-30 23:53:00,
2013-08-30 19:58:00,76.2,72.4,29.74,SSW,194,0.0,0.0,88,0.20,,---,0.20,VWS V14.01,2013-08-30 23:58:00,
2013-08-30 20:03:00,75.8,72.7,29.74,SSW,194,0.0,0.0,90,0.20,,---,0.20,VWS V14.01,2013-08-31 00:03:00,
2013-08-30 20:08:00,75.4,72.3,29.73,SSW,194,0.0,0.0,90,0.20,,---,0.20,VWS V14.01,2013-08-31 00:08:00,
2013-08-30 20:13:00,74.9,71.8,29.74,SSW,194,0.0,0.0,90,0.20,,---,0.20,VWS V14.01,2013-08-31 00:13:00,
2013-08-30 20:18:00,74.5,71.7,29.74,SSW,194,0.0,0.0,91,0.20,,---,0.20,VWS V14.01,2013-08-31 00:18:00,
2013-08-30 20:23:00,74.3,71.8,29.74,SSW,194,0.0,0.0,92,0.20,,---,0.20,VWS V14.01,2013-08-31 00:23:00,
2013-08-30 20:28:00,74.0,71.8,29.74,SSW,203,2.0,2.0,93,0.20,,---,0.20,VWS V14.01,2013-08-31 00:28:00,
2013-08-30 20:33:00,73.9,72.1,29.75,NNW,340,2.0,2.0,94,0.20,,---,0.20,VWS V14.01,2013-08-31 00:33:00,
2013-08-30 20:38:00,73.9,72.1,29.75,NNW,338,0.0,0.0,94,0.12,,---,0.20,VWS V14.01,2013-08-31 00:38:00,
2013-08-30 20:43:00,74.0,72.2,29.75,NNW,337,2.0,2.0,94,0.02,,---,0.20,VWS V14.01,2013-08-31 00:43:00,
2013-08-30 20:48:00,73.9,72.4,29.75,NNW,337,1.0,1.0,95,0.00,,---,0.20,VWS V14.01,2013-08-31 00:48:00,
2013-08-30 20:53:00,73.9,72.4,29.75,NNW,337,2.0,2.0,95,0.00,,---,0.20,VWS V14.01,2013-08-31 00:53:00,
2013-08-30 20:58:00,74.0,72.5,29.75,NNW,337,2.0,3.0,95,0.00,,---,0.20,VWS V14.01,2013-08-31 00:58:00,
2013-08-30 21:03:00,73.9,72.4,29.75,NNW,337,2.0,3.0,95,0.00,,---,0.20,VWS V14.01,2013-08-31 01:03:00,
2013-08-30 21:08:00,73.9,72.4,29.75,NNW,337,0.0,0.0,95,0.00,,---,0.20,VWS V14.01,2013-08-31 01:08:00,
2013-08-30 21:13:00,73.9,72.4,29.75,NNW,337,0.0,0.0,95,0.00,,---,0.20,VWS V14.01,2013-08-31 01:13:00,
2013-08-30 21:18:00,73.8,72.3,29.75,NNW,336,1.0,1.0,95,0.00,,---,0.20,VWS V14.01,2013-08-31 01:18:00,
2013-08-30 21:23:00,73.7,72.2,29.75,NNW,337,0.0,2.0,95,0.00,,---,0.20,VWS V14.01,2013-08-31 01:23:00,
2013-08-30 21:28:00,73.7,72.2,29.75,NNW,337,0.0,0.0,95,0.00,,---,0.20,VWS V14.01,2013-08-31 01:28:00,
2013-08-30 21:33:00,73.6,72.1,29.75,NNW,336,0.0,0.0,95,0.00,,---,0.20,VWS V14.01,2013-08-31 01:33:00,
2013-08-30 21:38:00,73.6,72.1,29.75,NNW,337,0.0,0.0,95,0.00,,---,0.20,VWS V14.01,2013-08-31 01:38:00,
2013-08-30 21:43:00,73.5,72.0,29.75,NNW,337,0.0,0.0,95,0.00,,---,0.20,VWS V14.01,2013-08-31 01:43:00,
2013-08-30 21:48:00,73.4,71.9,29.75,NNW,336,0.0,0.0,95,0.00,,---,0.20,VWS V14.01,2013-08-31 01:48:00,
2013-08-30 21:53:00,73.3,71.8,29.75,NNW,336,0.0,0.0,95,0.00,,---,0.20,VWS V14.01,2013-08-31 01:53:00,
2013-08-30 21:58:00,73.3,71.8,29.75,NNW,336,0.0,0.0,95,0.00,,---,0.20,VWS V14.01,2013-08-31 01:58:00,
2013-08-30 22:03:00,73.2,71.7,29.75,NNW,336,0.0,0.0,95,0.00,,---,0.20,VWS V14.01,2013-08-31 02:03:00,
2013-08-30 22:08:00,73.1,71.6,29.75,NNW,336,0.0,0.0,95,0.00,,---,0.20,VWS V14.01,2013-08-31 02:08:00,
2013-08-30 22:13:00,73.1,71.6,29.75,NNW,336,0.0,0.0,95,0.00,,---,0.20,VWS V14.01,2013-08-31 02:13:00,
2013-08-30 22:18:00,73.0,71.8,29.75,NNW,336,0.0,0.0,96,0.00,,---,0.20,VWS V14.01,2013-08-31 02:18:00,
2013-08-30 22:23:00,73.0,71.8,29.75,NNW,336,0.0,0.0,96,0.00,,---,0.20,VWS V14.01,2013-08-31 02:23:00,
2013-08-30 22:28:00,73.0,71.8,29.75,NNW,336,0.0,0.0,96,0.00,,---,0.20,VWS V14.01,2013-08-31 02:28:00,
2013-08-30 22:33:00,72.9,71.4,29.75,NNW,336,0.0,0.0,95,0.00,,---,0.20,VWS V14.01,2013-08-31 02:33:00,
2013-08-30 22:38:00,72.8,71.3,29.75,NNW,336,0.0,0.0,95,0.00,,---,0.20,VWS V14.01,2013-08-31 02:38:00,
2013-08-30 22:43:00,72.7,71.5,29.75,NNW,336,0.0,0.0,96,0.00,,---,0.20,VWS V14.01,2013-08-31 02:43:00,
2013-08-30 22:48:00,72.6,71.4,29.75,NNW,336,0.0,0.0,96,0.00,,---,0.20,VWS V14.01,2013-08-31 02:48:00,
2013-08-30 22:53:00,72.6,71.4,29.75,NNW,336,0.0,0.0,96,0.00,,---,0.20,VWS V14.01,2013-08-31 02:53:00,
2013-08-30 22:58:00,72.5,71.3,29.75,NNW,336,0.0,0.0,96,0.00,,---,0.20,VWS V14.01,2013-08-31 02:58:00,
2013-08-30 23:03:00,72.5,71.3,29.75,NNW,336,0.0,0.0,96,0.00,,---,0.20,VWS V14.01,2013-08-31 03:03:00,
2013-08-30 23:08:00,72.5,71.3,29.75,NNW,336,0.0,0.0,96,0.00,,---,0.20,VWS V14.01,2013-08-31 03:08:00,
2013-08-30 23:13:00,72.4,71.2,29.75,NNW,336,0.0,0.0,96,0.00,,---,0.20,VWS V14.01,2013-08-31 03:13:00,
2013-08-30 23:18:00,72.4,71.2,29.75,NNW,336,0.0,0.0,96,0.00,,---,0.20,VWS V14.01,2013-08-31 03:18:00,
2013-08-30 23:23:00,72.3,71.1,29.75,NNW,336,0.0,0.0,96,0.00,,---,0.20,VWS V14.01,2013-08-31 03:23:00,
2013-08-30 23:28:00,72.2,71.0,29.75,NNW,336,0.0,3.0,96,0.00,,---,0.20,VWS V14.01,2013-08-31 03:28:00,
2013-08-30 23:33:00,72.3,71.1,29.75,NNW,336,1.0,3.0,96,0.00,,---,0.20,VWS V14.01,2013-08-31 03:33:00,
2013-08-30 23:38:00,72.3,71.1,29.75,NNW,336,0.0,2.0,96,0.00,,---,0.20,VWS V14.01,2013-08-31 03:38:00,
2013-08-30 23:43:00,72.4,71.5,29.75,NNW,336,0.0,0.0,97,0.00,,---,0.20,VWS V14.01,2013-08-31 03:43:00,
2013-08-30 23:48:00,72.3,71.1,29.75,NNW,336,0.0,0.0,96,0.00,,---,0.20,VWS V14.01,2013-08-31 03:48:00,
2013-08-30 23:53:00,72.2,71.0,29.75,NNW,336,0.0,2.0,96,0.00,,---,0.20,VWS V14.01,2013-08-31 03:53:00,
2013-08-30 23:58:00,72.2,71.0,29.75,NNW,336,0.0,1.0,96,0.00,,---,0.20,VWS V14.01,2013-08-31 03:58:00,